Temp
76 75 74 74 72 72 70 70 74 74 75 74 73 72 72 71 71 69 69 69 68 67 66 67 65 67 66 66 66 65 63 61 59 61 62 63 62 61 63 63 65 62 58
76 76 73 73 73 70 69 70 72 75 73 73 73 73 73 72 71 70 69 70 68 65 66 65 65 69 64 65 63 63 62 62 60 59 61 60 60 60 61 61 65 69 61
76 75 73 72 72 72 72 73 75 72 72 72 73 72 72 72 71 71 71 69 67 67 66 65 65 65 64 63 63 63 63 64 62 60 59 60 59 59 58 60 61 61 65
68 74 72 71 71 72 73 73 72 71 71 71 72 74 73 72 72 72 70 68 67 67 67 67 67 65 64 64 63 62 63 61 62 60 59 57 56 58 57 56 56 58 56
68 71 71 71 72 72 69 70 69 68 70 70 70 71 71 71 73 70 69 67 65 65 66 64 59 58 58 56 62 61 60 60 60 59 57 55 53 53 53 56 55 56 55
68 63 73 72 71 69 70 68 68 68 68 68 68 70 68 72 57 60 65 65 65 64 58 58 57 57 55 56 56 55 56 57 56 56 54 52 50 51 54 54 53 53 50
67 65 72 72 70 68 68 67 67 66 66 66 66 66 66 63 54 56 59 65 64 61 59 58 63 63 59 57 55 56 56 57 57 55 51 51 50 51 52 52 53 53 51
69 68 71 73 70 68 67 66 65 65 64 64 65 65 62 61 54 54 57 64 63 63 62 61 59 59 57 59 58 59 58 56 57 59 54 54 53 53 53 54 54 55 54
71 72 72 72 67 64 64 64 63 63 62 62 64 63 61 58 52 53 61 63 62 62 63 63 62 58 49 49 61 57 54 54 54 54 54 53 51 50 50 55 54 52 50
72 72 67 68 66 63 63 62 63 62 62 62 62 60 58 58 51 52 60 65 61 59 57 55 52 53 49 51 58 58 54 54 57 56 54 51 49 54 55 55 54 50 49
72 69 67 64 64 64 63 62 62 62 61 61 60 58 59 58 55 50 52 64 63 60 59 57 54 47 49 50 51 59 55 57 56 58 57 57 57 56 56 56 55 52 49
72 68 64 63 62 61 61 61 61 60 60 58 57 56 58 59 52 47 50 56 58 60 59 57 49 45 46 50 52 47 50 50 56 58 56 55 54 55 56 56 56 55 54
68 63 61 61 60 61 60 59 59 60 58 56 55 54 54 58 55 47 47 49 54 60 59 51 44 44 46 49 48 50 48 55 56 56 54 54 55 56 57 56 56 56 55
62 60 60 60 59 59 59 59 59 58 56 56 54 52 52 57 56 55 54 54 51 53 50 50 50 51 49 54 52 52 55 57 57 56 55 56 57 56 55 56 54 54 52
60 59 59 59 58 58 58 58 59 60 58 57 55 56 53 53 56 54 56 58 56 53 52 53 52 54 54 54 54 56 57 58 57 56 56 56 57 57 55 55 54 53 51
59 58 57 57 57 57 53 52 47 52 48 48 50 56 57 52 47 47 47 47 46 47 54 54 54 55 55 56 56 56 57 57 57 57 56 56 55 55 55 55 55 52 50
58 56 56 55 56 53 54 53 49 46 44 46 47 47 50 49 45 44 43 45 45 47 56 56 56 57 57 57 56 57 56 56 58 57 56 56 56 56 55 54 55 54 52
56 51 56 55 54 54 55 54 55 54 53 52 43 49 44 45 43 42 43 47 49 49 56 58 57 57 58 57 57 56 55 55 57 56 56 56 56 55 54 53 53 52 52
55 55 54 54 54 54 55 55 56 56 54 50 46 44 44 43 42 42 46 55 54 54 56 57 58 57 58 58 57 57 56 56 56 56 55 55 56 56 53 53 50 45 44
54 48 50 53 53 54 54 54 54 51 49 49 49 46 46 47 52 52 56 56 56 58 60 59 58 58 57 57 56 56 55 55 55 56 55 55 55 55 54 54 53 52 51
52 51 46 52 52 53 53 52 51 50 50 49 46 46 44 53 52 54 57 59 59 60 59 59 61 59 57 56 56 56 55 55 55 55 55 55 55 54 55 54 53 52 52
52 51 52 51 51 52 52 53 52 52 52 49 46 45 40 52 52 56 58 60 60 60 59 59 59 59 59 58 56 56 55 55 55 56 55 55 55 56 55 54 53 52 52
53 52 52 51 52 46 50 51 52 52 51 50 48 48 51 51 51 54 59 59 58 56 57 57 56 57 56 57 58 58 58 55 55 56 55 55 55 55 55 53 53 50 48
53 52 52 51 50 50 51 50 51 47 50 49 49 51 53 53 53 57 57 57 57 57 56 55 56 57 56 57 58 59 56 56 57 57 58 56 54 52 54 53 53 52 50
52 51 51 50 50 50 49 50 49 51 50 51 52 54 56 57 58 58 56 57 57 56 56 56 55 58 58 59 52 50 39 38 47 41 56 56 56 56 54 54 53 53 53
52 51 50 51 50 50 50 50 49 49 49 50 52 57 57 58 58 57 57 56 56 56 56 56 58 58 58 52 48 38 37 37 43 37 51 56 54 54 54 54 55 52 52
MSLP
999.05 999.46 999.80 1000.00 1000.38 1000.96 1001.99 1002.78 1002.85 1003.56 1004.45 1005.06 1005.26 1006.94 1008.10 1009.12 1010.11 1010.14 1010.79 1011.48 1012.01 1012.51 1012.75 1013.24 1013.66 1013.82 1013.97 1014.47 1014.64 1014.36 1014.56 1014.76 1015.18 1015.27 1015.40 1015.73 1016.14 1016.03 1015.65 1015.16 1014.85 1014.97 1015.82
998.09 998.34 998.99 999.62 1000.20 1000.52 1001.80 1002.36 1002.73 1002.33 1004.29 1004.91 1005.55 1007.09 1007.76 1009.29 1009.92 1010.00 1010.70 1011.38 1012.08 1012.59 1013.02 1013.64 1013.90 1014.08 1014.27 1014.71 1015.09 1014.92 1015.02 1015.09 1015.35 1015.45 1015.64 1015.97 1016.24 1016.14 1015.96 1015.46 1015.01 1014.77 1015.69
997.71 997.07 998.04 999.41 1000.06 1000.49 1001.34 1001.89 1001.99 1003.35 1004.34 1004.66 1005.79 1007.07 1007.58 1009.02 1009.50 1009.86 1010.43 1011.31 1012.11 1012.43 1013.01 1013.78 1013.72 1014.13 1014.67 1014.80 1015.05 1015.21 1015.26 1015.25 1015.51 1015.58 1015.98 1016.12 1016.43 1016.56 1016.50 1015.86 1015.30 1015.12 1015.41
997.98 996.79 996.76 998.71 1000.04 1000.64 1001.04 1001.71 1002.73 1003.69 1004.40 1004.94 1005.73 1006.16 1007.52 1008.77 1009.28 1009.83 1010.53 1011.21 1012.00 1012.32 1013.14 1013.62 1013.85 1014.23 1014.76 1014.93 1015.30 1015.25 1015.39 1015.49 1015.51 1015.67 1016.05 1016.70 1017.09 1017.06 1016.81 1016.46 1015.96 1016.22 1015.96
996.90 997.08 995.78 997.55 999.49 1000.67 1001.17 1002.02 1002.83 1003.86 1004.37 1005.27 1006.00 1006.66 1007.84 1008.69 1008.89 1009.55 1010.41 1011.35 1011.82 1012.54 1013.21 1013.89 1014.60 1014.93 1015.28 1015.48 1015.42 1015.68 1015.94 1015.65 1015.77 1016.02 1016.93 1017.35 1017.98 1017.90 1017.54 1016.96 1016.58 1016.55 1016.39
996.93 998.02 997.22 997.30 998.57 1000.09 1001.15 1001.99 1002.75 1003.35 1004.15 1005.38 1006.50 1007.13 1008.16 1008.34 1008.55 1009.25 1010.17 1011.29 1011.99 1012.82 1013.88 1014.20 1015.02 1015.25 1015.67 1016.02 1015.89 1016.37 1016.34 1016.23 1016.72 1016.83 1017.49 1018.29 1018.69 1018.53 1017.97 1017.51 1016.82 1016.89 1016.83
997.51 996.93 996.73 997.23 998.28 999.34 1000.44 1001.43 1002.40 1003.07 1004.09 1005.48 1006.67 1007.55 1008.27 1008.34 1008.75 1009.62 1010.36 1011.33 1012.16 1012.89 1014.06 1014.15 1014.59 1015.52 1016.02 1016.36 1016.43 1016.89 1016.85 1016.95 1017.12 1017.46 1018.20 1018.49 1018.87 1018.78 1018.33 1017.70 1017.15 1017.05 1017.50
997.03 997.64 997.72 997.49 998.15 998.92 1000.26 1001.09 1002.11 1003.25 1004.20 1005.60 1006.68 1007.70 1008.16 1008.37 1008.58 1009.86 1010.77 1011.78 1012.17 1012.87 1013.66 1013.74 1014.52 1015.42 1016.24 1016.24 1016.66 1016.98 1017.40 1017.68 1017.68 1017.99 1018.35 1018.66 1018.84 1018.73 1018.39 1017.67 1017.13 1017.22 1017.46
995.96 996.02 996.28 996.91 998.20 998.73 999.99 1001.11 1002.07 1002.92 1004.07 1005.58 1006.63 1007.57 1008.01 1008.85 1008.59 1009.91 1010.68 1011.93 1012.67 1012.75 1013.25 1013.92 1014.45 1015.46 1016.29 1016.23 1016.55 1017.25 1017.69 1017.88 1018.03 1018.16 1018.41 1018.74 1019.02 1018.78 1018.55 1017.94 1017.74 1017.66 1017.88
995.34 995.71 995.90 997.15 998.02 998.32 999.17 1000.93 1001.71 1002.75 1004.04 1005.45 1006.20 1007.13 1007.88 1008.66 1008.91 1009.96 1010.68 1011.79 1012.44 1012.91 1013.74 1014.41 1014.78 1015.71 1016.26 1016.34 1016.55 1017.17 1017.59 1017.74 1017.90 1018.33 1018.55 1018.67 1019.03 1018.68 1018.46 1018.33 1018.38 1018.63 1018.64
994.68 995.35 995.71 997.09 997.54 998.50 999.35 1000.30 1000.95 1002.01 1003.92 1005.17 1006.13 1007.30 1008.01 1008.31 1009.56 1010.29 1010.89 1011.20 1011.90 1012.90 1013.90 1014.67 1015.55 1016.10 1016.34 1016.50 1016.60 1016.78 1017.25 1017.32 1017.49 1017.82 1017.97 1018.05 1018.63 1018.59 1018.77 1018.55 1018.65 1018.83 1018.98
993.90 994.89 995.63 996.29 997.83 999.18 999.43 999.86 1000.76 1002.66 1003.96 1005.22 1006.33 1007.20 1008.07 1008.77 1009.64 1010.47 1010.87 1010.98 1011.65 1012.73 1013.65 1014.72 1015.94 1016.42 1016.73 1016.84 1016.98 1017.20 1017.25 1017.49 1017.68 1017.67 1018.09 1018.40 1018.71 1018.64 1018.64 1018.49 1018.61 1018.97 1019.17
993.65 994.96 995.56 996.50 997.64 999.08 999.13 999.73 1001.49 1002.28 1003.89 1005.05 1006.14 1007.28 1008.42 1009.16 1009.96 1010.29 1010.50 1010.64 1011.74 1012.73 1013.73 1014.96 1015.95 1016.59 1016.82 1017.01 1017.26 1017.34 1017.33 1017.48 1017.29 1017.53 1018.21 1018.43 1018.57 1018.46 1018.19 1018.38 1018.51 1018.76 1019.03
993.27 994.40 995.52 996.16 997.11 998.07 999.39 999.48 1000.90 1002.12 1003.65 1004.66 1005.76 1007.08 1008.32 1009.12 1009.95 1010.49 1010.76 1010.98 1012.45 1013.60 1014.29 1015.55 1016.20 1016.59 1017.00 1017.10 1017.42 1017.42 1017.51 1017.24 1017.14 1017.67 1018.16 1018.14 1018.12 1018.28 1018.51 1018.48 1018.61 1018.74 1019.14
993.77 994.52 995.52 996.42 997.41 998.43 999.49 999.91 1000.96 1002.03 1002.53 1003.61 1005.17 1006.02 1007.20 1008.63 1009.64 1010.39 1010.04 1011.47 1012.87 1013.65 1014.70 1015.91 1016.38 1016.62 1017.09 1017.27 1017.41 1017.26 1017.16 1017.28 1017.57 1017.76 1017.99 1018.14 1018.18 1018.36 1018.62 1018.65 1018.81 1019.10 1019.50
993.74 994.74 995.56 996.71 997.33 998.58 1000.00 1001.12 1002.18 1002.36 1003.25 1003.97 1004.26 1005.22 1007.16 1008.15 1009.56 1009.82 1010.53 1011.83 1012.96 1013.66 1014.84 1015.55 1015.86 1016.39 1016.79 1016.86 1016.97 1017.18 1017.14 1017.35 1017.58 1017.82 1018.09 1018.21 1018.46 1018.65 1018.80 1018.89 1019.16 1019.53 1019.84
993.76 994.75 995.77 995.93 997.58 999.27 1000.22 1001.22 1002.60 1003.84 1004.08 1004.74 1005.22 1005.68 1005.80 1007.38 1008.76 1009.99 1011.14 1012.25 1013.08 1013.70 1014.52 1015.08 1015.30 1015.53 1015.92 1016.25 1016.58 1016.98 1017.22 1017.47 1017.73 1017.99 1018.25 1018.67 1018.73 1018.77 1019.10 1019.30 1019.57 1019.77 1020.09
993.96 994.80 995.55 996.03 997.41 999.21 1000.07 1001.14 1001.91 1003.13 1003.99 1005.44 1005.90 1005.93 1006.80 1007.54 1008.80 1010.06 1011.12 1012.68 1013.78 1014.08 1014.14 1014.41 1014.76 1015.05 1015.38 1015.85 1016.31 1016.78 1017.28 1017.73 1017.89 1018.22 1018.43 1018.59 1018.68 1019.01 1019.40 1019.70 1019.93 1020.00 1020.10
994.41 995.14 995.75 996.92 997.80 999.26 999.99 1001.16 1002.05 1002.80 1003.90 1005.08 1006.48 1007.27 1007.64 1008.42 1009.37 1010.64 1011.30 1012.39 1013.20 1013.67 1013.94 1013.99 1014.42 1014.86 1015.10 1015.56 1016.09 1016.64 1017.13 1017.58 1017.91 1018.34 1018.67 1018.68 1018.68 1018.95 1019.54 1019.95 1020.20 1020.28 1020.35
994.56 995.46 996.18 997.30 998.28 999.15 999.88 1000.49 1001.76 1002.82 1004.12 1005.17 1006.37 1007.60 1008.53 1009.28 1010.27 1010.75 1011.49 1012.29 1012.93 1013.20 1013.19 1013.58 1014.23 1014.73 1015.13 1015.59 1016.12 1016.69 1017.32 1017.52 1018.11 1018.41 1018.73 1018.88 1018.79 1018.99 1019.47 1019.75 1020.05 1020.28 1020.47
995.03 995.99 996.63 997.58 998.32 998.66 999.55 1000.12 1001.53 1003.05 1003.94 1004.96 1005.95 1007.43 1007.98 1008.90 1009.93 1010.52 1011.10 1011.94 1012.53 1012.71 1012.69 1013.27 1014.10 1014.86 1015.27 1015.72 1016.26 1016.85 1017.36 1017.66 1018.16 1018.45 1018.83 1019.11 1019.05 1019.34 1019.45 1019.81 1020.16 1020.37 1020.66
995.46 996.10 996.91 997.59 998.19 998.84 999.81 1000.77 1001.62 1002.96 1004.29 1005.55 1006.53 1008.09 1008.12 1009.07 1010.05 1010.39 1010.76 1011.30 1012.04 1012.29 1012.62 1013.28 1014.15 1014.85 1015.30 1015.84 1016.29 1016.79 1017.09 1017.53 1018.01 1018.41 1018.67 1018.97 1019.29 1019.54 1019.74 1020.06 1020.41 1020.54 1020.80
995.60 996.24 996.78 997.59 998.19 999.03 999.97 1001.00 1002.06 1003.20 1004.60 1005.66 1006.49 1007.50 1008.38 1009.14 1010.05 1010.48 1010.38 1011.05 1011.78 1012.37 1012.85 1013.52 1014.13 1014.73 1015.24 1015.63 1015.97 1016.43 1016.99 1017.52 1017.93 1018.19 1018.58 1018.96 1019.36 1019.81 1019.91 1020.23 1020.71 1021.20 1021.47
995.68 996.04 996.80 997.74 998.39 999.42 1000.38 1001.52 1002.50 1003.54 1004.51 1005.76 1006.53 1007.07 1007.98 1009.08 1009.71 1010.07 1010.43 1011.03 1011.82 1012.50 1013.10 1013.76 1014.14 1014.74 1015.21 1015.61 1016.03 1016.43 1017.00 1017.55 1017.81 1018.23 1018.54 1018.89 1019.41 1019.91 1020.09 1020.34 1020.82 1021.17 1021.46
996.09 996.79 997.64 998.18 999.07 999.78 1000.60 1001.59 1002.83 1003.43 1004.26 1005.55 1006.49 1006.99 1007.75 1008.59 1009.27 1009.99 1010.48 1011.31 1012.04 1012.75 1013.32 1013.89 1014.38 1014.71 1015.41 1015.85 1016.92 1017.49 1017.90 1018.29 1018.54 1018.66 1018.69 1019.19 1019.65 1019.98 1020.37 1020.61 1020.77 1020.93 1021.15
996.98 997.57 998.11 998.73 999.62 1000.31 1000.72 1001.62 1002.93 1003.79 1004.64 1005.34 1006.40 1006.75 1007.39 1008.19 1009.13 1010.08 1010.74 1011.41 1012.23 1012.94 1013.60 1014.18 1014.67 1015.16 1015.67 1016.96 1017.84 1018.17 1018.10 1018.77 1019.10 1019.16 1019.19 1019.41 1019.85 1020.22 1020.59 1020.85 1020.97 1021.23 1021.42
Wind_Speed
14 13 11 13 10 9 10 13 12 11 12 13 16 11 12 8 8 7 7 7 7 5 6 4 5 2 3 3 1 3 5 4 3 3 4 2 4 2 4 4 4 4 6
17 15 14 13 15 13 15 14 9 13 13 13 13 14 13 10 8 10 11 9 7 7 6 6 5 4 5 2 3 4 4 2 3 2 2 3 4 4 5 5 3 5 9
23 17 14 11 12 13 11 12 13 13 14 14 16 14 15 13 10 10 9 9 8 7 7 6 6 6 4 4 2 1 2 2 2 2 2 4 4 4 6 5 4 4 6
6 18 18 15 15 13 12 11 13 12 12 12 13 14 13 13 11 11 11 10 8 7 6 6 6 6 5 3 4 3 1 1 3 2 4 4 5 4 4 4 4 5 3
5 13 18 17 15 13 10 11 13 12 9 7 10 11 11 13 11 12 11 9 8 8 7 10 9 10 14 9 2 6 6 3 5 4 5 5 4 4 4 4 4 2 5
9 15 17 18 17 14 13 13 13 12 13 10 9 12 13 10 15 15 14 10 9 8 9 10 7 10 10 11 13 13 7 5 7 6 5 5 5 4 4 5 2 4 4
4 4 17 18 19 18 16 14 15 15 14 12 10 10 12 6 18 17 15 10 9 10 9 9 8 8 9 6 10 9 10 13 11 7 6 5 2 3 5 6 6 3 4
7 14 21 15 16 18 18 19 16 16 17 15 12 13 9 11 23 19 15 9 9 10 9 8 11 8 6 8 7 6 8 6 6 6 6 5 1 3 4 3 4 4 5
11 7 10 12 14 15 16 18 18 14 15 12 13 13 14 12 23 19 15 10 9 9 8 8 8 10 5 7 7 9 7 5 5 8 7 4 2 7 6 5 6 5 4
10 9 8 12 16 16 17 11 18 17 17 12 12 12 17 15 19 18 16 10 10 9 8 7 13 9 7 7 2 9 7 6 6 5 3 4 5 4 5 6 5 5 4
13 11 14 12 12 14 19 16 13 16 15 14 13 15 15 16 14 15 8 12 10 9 8 7 5 8 8 7 4 6 5 3 4 3 4 3 5 5 4 4 5 4 4
8 13 14 16 11 8 15 18 17 17 16 15 15 12 11 12 14 10 7 10 13 10 8 8 6 8 8 9 7 8 8 1 3 3 4 4 4 3 3 5 5 6 3
12 15 16 15 15 16 15 15 14 16 14 14 12 11 10 9 7 10 10 15 9 8 10 12 12 9 9 7 6 4 2 3 3 5 4 4 4 2 3 5 5 7 6
14 16 15 16 14 13 10 13 14 14 14 13 13 12 10 9 7 5 8 13 17 13 17 9 7 6 2 6 3 3 2 1 4 4 3 3 4 3 3 3 3 3 3
13 15 15 13 15 13 11 11 13 13 15 17 13 15 15 11 8 9 11 11 10 13 12 7 5 3 4 3 2 4 2 2 4 3 2 2 3 4 3 3 2 4 4
13 12 13 13 11 10 9 8 11 13 14 14 21 20 11 15 17 15 17 19 20 18 9 7 6 6 6 5 5 4 3 4 4 3 2 3 4 4 3 3 3 4 5
14 13 12 14 13 11 11 12 12 10 15 17 18 17 21 23 20 18 18 21 18 12 7 7 6 7 5 5 5 4 3 4 3 4 3 3 4 2 3 4 3 4 4
13 17 12 11 15 13 12 12 12 14 16 12 6 14 20 23 22 20 23 16 7 1 2 6 5 5 6 5 5 5 6 3 3 3 3 2 3 4 5 4 3 3 4
13 11 11 11 13 13 13 13 12 13 12 11 7 7 17 22 23 21 17 10 9 6 5 5 5 4 4 5 5 5 6 4 4 4 3 3 3 3 5 5 3 4 1
11 15 13 11 13 13 13 13 12 11 11 10 9 10 10 12 12 13 9 9 8 7 5 6 5 4 4 5 5 5 4 5 4 4 3 2 2 4 4 4 3 4 3
9 10 13 11 11 12 11 12 13 12 12 11 12 10 13 13 12 13 10 10 8 6 5 7 7 5 4 5 5 5 4 4 4 5 4 3 2 3 4 4 4 4 4
11 11 10 11 11 12 12 11 12 13 12 13 12 9 14 10 10 11 9 8 5 4 6 6 6 5 4 4 5 6 5 5 5 4 4 4 3 4 4 3 3 3 4
10 11 10 10 10 12 10 11 11 12 12 12 14 13 11 10 10 9 7 7 6 6 6 5 5 5 4 4 5 5 5 5 5 5 5 4 4 3 3 4 5 5 4
10 11 11 10 10 12 12 12 11 13 13 13 13 13 12 11 11 11 7 9 8 7 5 5 5 6 6 5 4 2 5 5 5 4 6 4 5 2 4 4 6 7 4
8 10 10 12 12 12 13 12 12 14 14 14 14 12 13 12 11 9 9 9 8 7 6 5 4 9 8 7 12 10 9 12 8 7 5 6 5 5 4 4 4 4 5
9 9 10 11 11 13 14 14 13 13 12 13 11 11 13 12 11 11 10 10 8 6 6 5 7 9 9 14 12 8 12 10 7 8 3 5 4 3 3 4 6 4 4
Wind_Direction
203 205 202 216 202 171 179 180 183 176 160 159 142 137 146 147 176 143 135 143 138 138 110 121 92 86 93 107 51 29 72 37 51 18 97 152 96 350 309 299 335 151 121
210 190 189 207 198 198 172 208 177 148 159 145 140 152 147 163 182 149 149 148 143 131 141 132 140 107 100 45 98 75 76 81 46 86 128 75 92 353 324 328 12 55 120
200 179 175 192 191 190 190 188 157 151 154 151 156 165 156 169 164 151 145 147 142 146 138 155 130 140 90 94 41 122 153 102 78 33 89 68 61 15 339 346 12 48 93
322 190 165 178 193 186 181 171 147 156 166 161 165 155 159 167 162 155 146 143 151 131 144 139 139 115 132 126 107 127 100 31 213 222 80 80 43 352 347 355 5 52 17
2 243 165 165 176 190 176 164 150 163 137 151 157 148 164 170 162 161 145 143 133 125 130 98 74 88 76 63 57 39 12 18 43 55 61 56 25 356 347 334 348 49 35
317 338 200 171 170 170 174 171 169 161 141 159 158 166 176 179 150 139 139 135 130 131 106 100 108 94 80 80 79 70 65 60 52 63 58 67 26 352 334 336 340 345 14
269 11 226 178 173 173 172 164 172 153 146 158 163 170 178 151 131 127 124 133 143 118 132 137 146 122 116 113 91 92 71 67 66 77 87 57 43 322 327 325 315 51 68
252 193 227 200 188 164 172 173 157 161 160 164 167 175 160 149 130 129 125 136 129 135 159 151 123 142 130 144 153 130 86 62 77 85 93 113 143 321 311 285 316 102 76
264 230 207 192 175 146 172 168 151 157 156 156 169 153 146 150 131 135 133 137 142 136 104 118 136 117 117 58 141 114 114 125 86 106 114 130 252 303 338 7 16 23 21
237 215 173 184 183 169 148 174 164 160 157 154 155 144 147 143 138 142 140 141 139 112 94 76 80 101 95 54 110 143 161 170 157 157 208 233 237 260 34 35 41 32 38
225 185 157 157 175 168 163 147 163 154 155 153 149 147 150 146 149 145 142 145 132 130 125 117 94 103 91 66 74 122 114 92 163 188 166 129 154 119 94 65 65 67 62
250 173 165 157 155 149 159 145 153 146 149 144 141 140 146 148 148 116 113 138 135 134 141 112 108 108 93 88 81 95 93 33 270 167 98 88 62 51 154 137 113 112 101
246 171 173 155 145 153 167 153 149 147 148 143 140 135 145 150 125 114 109 119 106 122 116 117 125 120 109 89 105 99 84 256 220 104 113 118 138 217 330 143 147 145 162
164 155 158 155 150 149 164 152 150 153 151 148 141 138 140 144 133 124 112 95 93 100 105 117 132 130 258 132 155 213 257 268 86 104 111 144 152 125 64 44 76 120 134
157 151 156 153 148 152 160 156 161 168 163 151 151 148 148 153 155 147 120 117 124 124 116 124 136 152 138 164 240 111 110 101 97 104 142 147 127 110 102 90 48 80 75
151 155 147 152 132 150 136 112 42 152 135 142 144 151 145 135 143 133 119 119 127 129 128 154 157 158 180 193 155 173 146 124 119 113 70 79 62 55 107 88 101 90 88
149 150 149 149 137 146 146 142 130 73 94 128 133 131 135 144 137 123 123 131 145 139 149 167 179 171 166 172 142 144 147 92 68 97 102 127 131 129 99 64 66 98 98
147 153 149 161 139 153 151 152 144 147 144 145 71 124 134 137 134 132 133 123 148 176 207 166 165 168 150 159 147 118 102 152 138 124 114 94 94 110 79 51 50 41 97
149 153 140 148 142 156 148 151 152 153 141 134 116 75 135 133 132 134 137 146 163 183 224 142 147 157 136 130 123 125 155 163 130 126 135 144 148 111 128 122 112 85 57
142 137 136 147 152 150 152 146 148 141 140 136 140 141 142 131 143 147 151 154 165 195 177 150 132 135 132 124 121 113 117 114 116 125 125 106 90 119 107 102 117 101 87
133 140 138 143 151 146 148 143 142 149 147 142 134 148 147 144 147 154 155 162 179 204 138 126 132 126 121 123 129 115 143 148 171 131 139 146 106 92 97 115 94 54 81
145 142 145 149 147 145 146 146 143 145 144 135 130 141 128 131 151 160 163 155 179 137 127 128 130 139 137 151 149 153 169 143 138 137 126 138 140 128 120 105 87 86 65
147 151 143 143 142 128 133 139 144 143 141 137 142 139 141 142 156 169 163 137 123 110 111 115 129 138 148 151 141 142 141 143 134 130 142 143 129 129 128 117 102 79 70
148 143 143 146 139 141 141 142 144 137 137 138 143 144 147 157 161 167 133 122 119 116 113 118 134 150 130 116 121 147 91 103 119 139 144 135 103 152 108 113 125 147 120
131 135 143 139 144 141 135 133 138 140 138 144 152 156 149 159 160 143 126 125 126 126 117 122 118 121 118 119 82 93 86 66 47 30 101 123 165 149 138 131 141 89 114
125 131 133 137 141 143 140 135 136 133 139 144 153 161 153 151 139 137 133 130 132 128 126 119 118 122 110 96 97 93 86 73 56 34 5 91 105 106 116 126 136 116 90